{"data":{"norad_id":52639,"intl_designator":"2022-052AT","name":"STARLINK-3968","alt_names":[],"object_type":"PAYLOAD","status":"ACTIVE","operator":null,"country":"US","launch_date":"2022-05-14","launch_site_code":"AFETR","launch_vehicle":null,"mission":null,"orbit_class":"UNKNOWN","rcs_meters":null,"size_class":null,"mass_kg":null,"dimensions":null,"purposes":["comms"],"wikipedia_slug":null,"has_3d_model":false,"image_url":null,"decayed_at":null,"tle_current":{"epoch":"2026-05-24T15:25:01.050528Z","epoch_age_seconds":112919,"freshness":"FRESH","line1":"1 52639U 22052AT  26144.64237327  .00002006  00000+0  14409-3 0  9995","line2":"2 52639  53.2158 278.1543 0001178  85.3296 274.7830 15.08846289223404","mean_motion":15.08846289,"eccentricity":0.0001178,"inclination_deg":53.2158,"raan_deg":278.1543,"arg_perigee_deg":85.3296,"mean_anomaly_deg":274.783,"bstar":0.00014409,"rev_number":22340,"period_min":95.437156885899,"perigee_km":538.90924202846,"apogee_km":540.53909011919,"semimajor_km":6917.8611660738,"source":"CELESTRAK","updated_at":"2026-05-25T13:38:17.205990Z"}}}